Flag for Russia Weather past 2 weeks in Astrakhan, Russia

Now
81 °F

Sprinkles. Partly cloudy.


Feels Like: 81 °F
Forecast: 76 / 96 °F
Wind: 15 mph from North

Location: Astrakhan

Current Time: Aug 20, 2014 at 11:14:40 PM

Latest Report: Aug 20, 2014 at 10:30 PM


Visibility: N/A

Pressure: 29.92 "Hg

Humidity: 51%

Dew point: 61 °F

Location of AstrakhanLocation

Historic Weather in Astrakhan — Graph

°F

Astrakhan temperature yesterday

Maximum temperature yesterday: 100 °F (at 1:30 PM)
Minimum temperature yesterday: 70 °F (at 5:30 AM)
Average temperature yesterday: 85 °F

Past Weeks' High & Low Weather Summary

 TemperatureHumidityPressure
High100 °F (Aug 10, 2:00 PM)94% (Aug 20, 4:00 AM)30.04 "Hg (Aug 20, 4:00 AM)
Low66 °F (Aug 8, 6:00 AM)14% (Aug 10, 2:30 PM)29.56 "Hg (Aug 7, 12:30 PM)
Average85 °F42%29.79 "Hg
* Reported Aug 5 10:00 PM — Aug 20 10:30 PM, Astrakhan, Weather by CustomWeather, © 2014

Note: Actual official high and low records may vary slightly from our data, if they occured in-between our weather recording intervals... More about our weather records

Advertising

Astrakhan weather history for previous 24 hours

 ConditionsComfort  
Time TempWeatherWind HumidityBarometerVisibility
10:30 PM
Aug 20
81 °FSprinkles. Partly cloudy.15 mph51%29.92 "HgN/A
10:00 PM81 °FPartly cloudy.13 mph51%29.92 "HgN/A
9:30 PM82 °FPartly cloudy.10 mph48%29.92 "HgN/A
9:00 PM81 °FPartly cloudy.13 mph54%29.92 "HgN/A
8:30 PM82 °FBroken clouds.10 mph48%29.92 "HgN/A
8:00 PM84 °FBroken clouds.13 mph45%29.92 "HgN/A
7:30 PM84 °FBroken clouds.20 mph45%29.89 "HgN/A
7:00 PM90 °FBroken clouds.10 mph36%29.89 "HgN/A
6:30 PM91 °FPartly sunny.10 mph34%29.89 "HgN/A
6:00 PM93 °FPartly sunny.8 mph30%29.89 "HgN/A
5:30 PM95 °FPartly sunny.6 mph28%29.89 "HgN/A
5:00 PM95 °FPartly sunny.6 mph28%29.89 "HgN/A
4:30 PM95 °FPartly sunny.6 mph28%29.89 "HgN/A
4:00 PM97 °FSunny.8 mph27%29.89 "Hg10 mi
3:30 PM97 °FPassing clouds.6 mph27%29.89 "HgN/A
3:00 PM97 °FPassing clouds.6 mph25%29.89 "HgN/A
2:30 PM97 °FPassing clouds.8 mph27%29.89 "HgN/A
2:00 PM95 °FPassing clouds.8 mph28%29.89 "HgN/A
1:30 PM95 °FPassing clouds.8 mph28%29.89 "HgN/A
1:00 PM93 °FPassing clouds.6 mph30%29.92 "HgN/A
12:30 PM93 °FSunny.8 mph30%29.92 "Hg10 mi
12:00 PM91 °FPassing clouds.8 mph32%29.92 "HgN/A
11:30 AM90 °FPassing clouds.6 mph33%29.92 "HgN/A
11:00 AM90 °FPassing clouds.6 mph33%29.92 "HgN/A
10:30 AM88 °FPassing clouds.6 mph38%29.92 "HgN/A
10:00 AM86 °FPassing clouds.6 mph40%29.92 "HgN/A
9:30 AM86 °FPassing clouds.6 mph43%29.92 "HgN/A
9:00 AM82 °FPassing clouds.6 mph55%29.92 "HgN/A
8:30 AM81 °FSunny.3 mph62%29.92 "Hg10 mi
8:00 AM81 °FPassing clouds.6 mph62%29.89 "HgN/A
7:30 AM79 °FPassing clouds.3 mph70%29.89 "HgN/A
6:30 AM75 °FPassing clouds.3 mph83%29.86 "HgN/A
6:00 AM75 °FClear.3 mph89%29.83 "Hg10 mi
5:30 AM75 °FClear.6 mph94%29.80 "Hg10 mi
5:00 AM75 °FClear.6 mph94%29.86 "Hg10 mi
4:30 AM73 °FPassing clouds.3 mph94%29.83 "HgN/A
4:00 AM75 °FClear.1 mph94%29.83 "Hg10 mi
3:30 AM75 °FClear.3 mph89%29.86 "Hg10 mi
3:00 AM77 °FClear.6 mph83%29.86 "Hg10 mi
2:30 AM77 °FPassing clouds.6 mph83%29.86 "HgN/A
2:00 AM75 °FClear.1 mph78%29.83 "Hg10 mi
1:30 AM77 °FClear.1 mph79%29.83 "Hg10 mi
1:00 AM75 °FClear.1 mph78%29.83 "Hg10 mi
12:30 AM77 °FClear.6 mph69%29.83 "Hg10 mi
12:00 AM77 °FClear.3 mph69%29.83 "Hg10 mi
11:30 PM
Aug 19
79 °FClear.1 mph65%29.83 "Hg10 mi
11:00 PM79 °FClear.3 mph70%29.86 "Hg10 mi
Weather by CustomWeather, © 2014

See weather overviewHow to use our weather pages